contact: severine.martini@mio.osupytheas.fr, dominique.lefevre@mio.osupytheas.fr
Project:EMSO Ligure-ouest http://www.emso-fr.org/EMSO-France
Sensor Aquadopp, Serial 05974 
DOI : "https://doi.org/10.17882/97948" 
Title:EMSO Western Ligurian : Data Bathybot Aquadopp sensor - deploiement 2023-04-28
Datetime,Profondeur,Latitude,Longitude,X_East,Y_North,Z_up,Amplitude_X,Amplitude_Y,Amplitude_Z,Batterie,Sound_Speed,Heading,Pitch,Roll,Pressure,Temperature,Fluorescence,Speed,Direction
time,m,degree_north,degree_east,m.s-1,m.s-1,m.s-1,1,1,1,Volt,m.s-1,degree,degree,degree,dbar,degree_C,arbitrary units (a.u.),m.s-1,degree
2023-12-08T09:17:03,2420,42.8014,5.9826,0.087,0.075,4.178,156.0,152.0,153.0,11.8,1504.7,271.3,-0.8,0.9,2485.856,13.28,779.0,0.114,49.2
2023-12-08T09:18:13,2420,42.8014,5.9826,0.094,0.066,4.088,156.0,152.0,153.0,11.7,1504.7,271.4,-0.8,0.9,2485.996,13.28,767.0,0.114,54.9
2023-12-08T09:21:13,2420,42.8014,5.9826,0.024,0.075,4.165,156.0,152.0,153.0,11.7,1504.7,271.4,-0.8,0.9,2486.299,13.28,765.0,0.078,17.7
2023-12-08T09:24:13,2420,42.8014,5.9826,0.31,0.052,3.909,156.0,152.0,153.0,11.7,1504.7,271.4,-0.9,0.9,2486.478,13.28,768.0,0.314,80.5
2023-12-08T09:27:14,2420,42.8014,5.9826,0.054,0.072,4.07,156.0,152.0,153.0,11.7,1504.7,271.3,-0.8,0.9,2486.105,13.28,788.0,0.089,36.9
2023-12-08T09:30:14,2420,42.8014,5.9826,0.065,0.076,4.091,156.0,152.0,153.0,11.7,1504.7,271.4,-0.8,0.9,2486.155,13.28,779.0,0.1,40.5
2023-12-08T09:33:14,2420,42.8014,5.9826,0.069,0.085,4.143,156.0,152.0,153.0,11.7,1504.7,271.4,-0.8,0.9,2486.054,13.28,795.0,0.109,39.1
2023-12-08T09:36:14,2420,42.8014,5.9826,-0.012,0.061,4.218,156.0,152.0,153.0,11.7,1504.7,271.4,-0.8,0.9,2486.183,13.28,786.0,0.062,348.9
2023-12-08T09:39:14,2420,42.8014,5.9826,0.016,0.08,4.182,156.0,152.0,153.0,11.7,1504.7,271.7,-0.8,0.9,2486.584,13.28,780.0,0.081,11.3
2023-12-08T09:42:14,2420,42.8014,5.9826,0.022,0.061,4.143,156.0,152.0,153.0,11.7,1504.7,271.3,-0.8,0.9,2486.199,13.28,780.0,0.064,19.8
2023-12-08T09:45:14,2420,42.8014,5.9826,0.019,0.069,4.263,156.0,152.0,153.0,11.7,1504.7,271.3,-0.8,0.9,2486.195,13.28,766.0,0.071,15.4
2023-12-08T09:48:14,2420,42.8014,5.9826,-0.017,0.073,4.248,156.0,152.0,153.0,11.7,1504.7,271.3,-0.8,0.9,2486.109,13.28,767.0,0.074,346.9
2023-12-08T09:51:14,2420,42.8014,5.9826,-0.008,0.081,4.145,156.0,152.0,153.0,11.7,1504.7,271.4,-0.8,0.9,2486.255,13.28,769.0,0.081,354.4
2023-12-08T09:54:14,2420,42.8014,5.9826,0.024,0.073,4.184,156.0,152.0,153.0,11.7,1504.7,271.5,-0.8,0.9,2486.299,13.28,774.0,0.076,18.2
2023-12-08T09:57:13,2420,42.8014,5.9826,0.046,0.064,4.177,156.0,152.0,153.0,11.7,1504.7,271.5,-0.8,0.9,2486.382,13.28,780.0,0.078,35.7
2023-12-08T10:03:14,2420,42.8014,5.9826,0.006,0.064,4.245,156.0,152.0,153.0,11.7,1504.7,271.5,-0.8,0.9,2486.329,13.28,783.0,0.064,5.4
2023-12-08T10:06:14,2420,42.8014,5.9826,0.026,0.065,4.251,156.0,152.0,153.0,11.7,1504.7,271.7,-0.8,0.9,2486.271,13.28,780.0,0.07,21.8
2023-12-08T10:09:14,2420,42.8014,5.9826,-0.035,0.059,4.346,156.0,152.0,153.0,11.7,1504.7,271.4,-0.8,0.9,2486.428,13.28,777.0,0.068,329.3
2023-12-08T10:12:14,2420,42.8014,5.9826,0.006,0.08,4.309,156.0,152.0,153.0,11.7,1504.7,271.5,-0.8,0.9,2486.275,13.28,785.0,0.08,4.3
2023-12-08T10:15:13,2420,42.8014,5.9826,0.011,0.08,4.325,156.0,152.0,153.0,11.7,1504.7,271.6,-0.8,0.9,2485.878,13.28,782.0,0.08,7.8
2023-12-08T10:18:14,2420,42.8014,5.9826,0.012,0.071,4.266,156.0,152.0,153.0,11.7,1504.7,271.4,-0.9,0.9,2485.994,13.28,787.0,0.072,9.6
2023-12-08T10:21:14,2420,42.8014,5.9826,0.012,0.062,4.225,156.0,152.0,153.0,11.7,1504.7,271.5,-0.9,0.9,2486.366,13.28,790.0,0.063,11.0
2023-12-08T10:24:14,2420,42.8014,5.9826,0.097,0.072,4.097,156.0,152.0,153.0,11.7,1504.7,271.5,-0.8,0.9,2485.932,13.28,793.0,0.12,53.4
2023-12-08T10:27:14,2420,42.8014,5.9826,0.016,0.069,4.243,156.0,152.0,153.0,11.7,1504.7,271.4,-0.8,0.9,2486.163,13.28,780.0,0.07,13.1
2023-12-08T10:30:14,2420,42.8014,5.9826,0.008,0.065,4.217,156.0,152.0,153.0,11.7,1504.7,271.4,-0.9,0.9,2486.169,13.28,768.0,0.065,7.0
2023-12-08T10:33:14,2420,42.8014,5.9826,0.069,0.062,4.115,156.0,152.0,153.0,11.7,1504.7,271.5,-0.8,0.9,2486.237,13.28,782.0,0.092,48.1
2023-12-08T10:36:14,2420,42.8014,5.9826,0.031,0.058,4.219,156.0,152.0,153.0,11.7,1504.7,271.4,-0.8,0.9,2485.952,13.28,772.0,0.065,28.1
2023-12-08T10:39:14,2420,42.8014,5.9826,0.058,0.056,4.204,156.0,152.0,153.0,11.7,1504.7,271.3,-0.8,0.9,2485.944,13.28,781.0,0.08,46.0
2023-12-08T10:42:14,2420,42.8014,5.9826,0.068,0.074,4.139,156.0,152.0,153.0,11.7,1504.7,271.5,-0.8,0.9,2486.179,13.28,772.0,0.1,42.6
2023-12-08T10:45:14,2420,42.8014,5.9826,0.107,0.066,4.136,156.0,152.0,153.0,11.7,1504.7,271.5,-0.8,0.9,2486.143,13.28,779.0,0.125,58.3
2023-12-08T10:48:14,2420,42.8014,5.9826,0.045,0.057,4.208,156.0,152.0,153.0,11.7,1504.7,271.4,-0.8,0.9,2486.452,13.29,775.0,0.072,38.3
2023-12-08T10:51:14,2420,42.8014,5.9826,0.031,0.065,4.204,156.0,152.0,153.0,11.7,1504.7,271.5,-0.8,0.9,2485.994,13.29,773.0,0.072,25.5
2023-12-08T10:54:14,2420,42.8014,5.9826,0.024,0.079,4.17,156.0,152.0,153.0,11.7,1504.7,271.4,-0.8,0.9,2486.41,13.29,781.0,0.082,16.9
2023-12-08T10:57:14,2420,42.8014,5.9826,0.048,0.065,4.171,156.0,152.0,153.0,11.7,1504.7,271.4,-0.8,0.9,2486.018,13.29,783.0,0.08,36.4
2023-12-08T11:03:14,2420,42.8014,5.9826,0.059,0.059,4.119,156.0,152.0,153.0,11.7,1504.7,271.5,-0.8,0.9,2486.101,13.29,771.0,0.083,45.0
2023-12-08T11:06:14,2420,42.8014,5.9826,-0.002,0.077,4.205,156.0,152.0,153.0,11.7,1504.7,271.3,-0.8,0.9,2486.131,13.29,773.0,0.077,358.5
2023-12-08T11:09:14,2420,42.8014,5.9826,0.05,0.071,4.068,156.0,152.0,153.0,11.7,1504.7,271.3,-0.8,0.9,2485.918,13.3,782.0,0.086,35.2
2023-12-08T11:12:14,2420,42.8014,5.9826,0.051,0.067,4.077,156.0,152.0,153.0,11.7,1504.7,271.4,-0.8,0.9,2485.964,13.3,780.0,0.084,37.3
2023-12-08T11:15:14,2420,42.8014,5.9826,0.013,0.083,4.115,156.0,152.0,153.0,11.7,1504.7,271.5,-0.8,0.9,2485.918,13.3,771.0,0.084,8.9
2023-12-08T11:18:14,2420,42.8014,5.9826,0.023,0.069,4.147,156.0,152.0,153.0,11.7,1504.7,271.3,-0.9,0.9,2485.735,13.3,775.0,0.072,18.4
2023-12-08T11:21:14,2420,42.8014,5.9826,0.016,0.059,4.172,156.0,152.0,153.0,11.7,1504.7,271.4,-0.9,0.9,2485.888,13.3,768.0,0.061,15.2
2023-12-08T11:24:14,2420,42.8014,5.9826,0.016,0.072,4.213,156.0,152.0,153.0,11.7,1504.7,271.4,-0.8,0.9,2485.683,13.3,777.0,0.073,12.5
2023-12-08T11:27:14,2420,42.8014,5.9826,0.018,0.049,4.138,156.0,152.0,153.0,11.7,1504.8,271.4,-0.9,0.9,2485.994,13.31,766.0,0.052,20.2
2023-12-08T11:30:13,2420,42.8014,5.9826,-0.005,0.075,4.192,156.0,152.0,153.0,11.7,1504.8,271.5,-0.8,0.8,2486.107,13.33,791.0,0.075,356.2
2023-12-08T11:33:14,2420,42.8014,5.9826,0.01,0.064,4.218,156.0,152.0,153.0,11.7,1504.9,271.3,-0.8,0.9,2485.848,13.34,773.0,0.064,8.9
2023-12-08T11:36:14,2420,42.8014,5.9826,0.012,0.071,4.138,156.0,152.0,153.0,11.7,1504.9,271.4,-0.8,0.9,2485.671,13.35,777.0,0.072,9.6
2023-12-08T11:39:14,2420,42.8014,5.9826,0.011,0.071,4.234,156.0,152.0,153.0,11.7,1504.9,271.5,-0.8,0.9,2486.329,13.35,787.0,0.071,8.8
2023-12-08T11:42:14,2420,42.8014,5.9826,-0.001,0.075,4.141,156.0,152.0,153.0,11.7,1504.9,271.4,-0.8,0.9,2486.343,13.35,787.0,0.075,359.2
2023-12-08T11:45:14,2420,42.8014,5.9826,0.039,0.067,4.146,156.0,152.0,153.0,11.7,1504.9,271.4,-0.8,0.9,2485.793,13.34,780.0,0.077,30.2
2023-12-08T11:48:14,2420,42.8014,5.9826,0.027,0.071,4.165,156.0,152.0,153.0,11.7,1504.9,271.3,-0.8,0.9,2485.938,13.34,771.0,0.075,20.8
2023-12-08T11:51:14,2420,42.8014,5.9826,0.056,0.063,4.14,156.0,152.0,153.0,11.7,1504.9,271.5,-0.8,0.9,2485.908,13.34,779.0,0.084,41.6
2023-12-08T11:54:14,2420,42.8014,5.9826,0.035,0.067,4.085,156.0,152.0,153.0,11.7,1504.9,271.5,-0.9,0.9,2486.048,13.34,777.0,0.075,27.6
2023-12-08T11:57:14,2420,42.8014,5.9826,-0.011,0.068,4.258,156.0,152.0,153.0,11.7,1504.9,271.4,-0.8,0.8,2486.048,13.34,778.0,0.068,350.8
2023-12-08T12:03:14,2420,42.8014,5.9826,0.019,0.068,4.184,156.0,152.0,153.0,11.7,1504.8,271.7,-0.8,0.9,2486.207,13.33,776.0,0.07,15.6
2023-12-08T12:06:13,2420,42.8014,5.9826,0.055,0.062,4.163,156.0,152.0,153.0,11.7,1504.8,271.5,-0.8,0.9,2485.767,13.33,769.0,0.082,41.6
2023-12-08T12:09:13,2420,42.8014,5.9826,0.086,0.057,4.075,156.0,152.0,153.0,11.7,1504.8,271.4,-0.8,0.9,2486.052,13.33,779.0,0.103,56.5
2023-12-08T12:12:13,2420,42.8014,5.9826,0.033,0.077,4.113,156.0,152.0,153.0,11.7,1504.8,271.5,-0.8,0.8,2486.177,13.33,768.0,0.083,23.2
2023-12-08T12:15:14,2420,42.8014,5.9826,0.037,0.064,4.129,156.0,152.0,153.0,11.7,1504.8,271.5,-0.8,0.9,2485.817,13.33,775.0,0.073,30.0
2023-12-08T12:18:13,2420,42.8014,5.9826,0.076,0.066,4.139,156.0,152.0,153.0,11.7,1504.8,271.7,-0.8,0.9,2486.239,13.33,769.0,0.1,49.0
2023-12-08T12:21:14,2420,42.8014,5.9826,-0.013,0.067,4.178,156.0,152.0,153.0,11.7,1504.8,271.3,-0.9,0.9,2486.048,13.32,778.0,0.068,349.0
2023-12-08T12:24:13,2420,42.8014,5.9826,0.033,0.065,4.184,156.0,152.0,153.0,11.7,1504.8,271.4,-0.9,0.9,2486.016,13.32,777.0,0.072,26.9
2023-12-08T12:27:13,2420,42.8014,5.9826,-0.002,0.142,4.075,156.0,152.0,153.0,11.7,1504.8,271.7,-0.8,0.9,2485.862,13.32,772.0,0.142,359.2
2023-12-08T12:30:12,2420,42.8014,5.9826,0.035,0.069,4.201,156.0,152.0,153.0,11.7,1504.8,271.5,-0.8,0.9,2486.129,13.32,787.0,0.077,26.9
2023-12-08T12:33:13,2420,42.8014,5.9826,0.022,0.072,4.131,156.0,152.0,153.0,11.7,1504.8,271.4,-0.8,0.9,2486.189,13.32,774.0,0.075,17.0
2023-12-08T12:36:13,2420,42.8014,5.9826,0.011,0.073,4.201,156.0,152.0,153.0,11.7,1504.8,271.5,-0.8,0.9,2486.163,13.32,783.0,0.073,8.6
2023-12-08T12:39:13,2420,42.8014,5.9826,-0.002,0.07,4.233,156.0,152.0,153.0,11.7,1504.8,271.4,-0.8,0.9,2486.297,13.32,786.0,0.07,358.4
2023-12-08T12:42:12,2420,42.8014,5.9826,0.015,0.078,4.157,156.0,152.0,153.0,11.7,1504.8,271.4,-0.8,0.9,2485.934,13.32,787.0,0.079,10.9
2023-12-08T12:45:12,2420,42.8014,5.9826,0.047,0.064,4.088,156.0,152.0,153.0,11.7,1504.8,271.6,-0.8,0.9,2486.036,13.32,771.0,0.079,36.3
2023-12-08T12:48:12,2420,42.8014,5.9826,0.067,0.075,4.096,156.0,152.0,153.0,11.7,1504.8,271.5,-0.8,0.9,2485.956,13.31,777.0,0.1,41.8
2023-12-08T12:51:12,2420,42.8014,5.9826,0.037,0.06,4.096,156.0,152.0,153.0,11.7,1504.8,271.5,-0.8,0.8,2485.587,13.32,773.0,0.07,31.7
2023-12-08T12:54:12,2420,42.8014,5.9826,0.045,0.069,4.118,156.0,152.0,153.0,11.7,1504.8,271.5,-0.8,0.9,2486.267,13.32,781.0,0.082,33.1
2023-12-08T12:57:12,2420,42.8014,5.9826,0.054,0.057,4.155,156.0,152.0,153.0,11.7,1504.8,271.5,-0.8,0.9,2485.679,13.31,778.0,0.078,43.5
2023-12-08T13:03:13,2420,42.8014,5.9826,0.035,0.065,4.22,156.0,152.0,153.0,11.7,1504.8,271.5,-0.8,0.9,2486.008,13.31,768.0,0.073,28.3
2023-12-08T13:06:12,2420,42.8014,5.9826,0.054,0.068,4.117,156.0,152.0,153.0,11.7,1504.8,271.4,-0.8,0.9,2486.135,13.31,767.0,0.086,38.5
2023-12-08T13:09:12,2420,42.8014,5.9826,0.033,0.071,4.229,156.0,152.0,153.0,11.7,1504.8,271.5,-0.8,0.9,2486.37,13.31,782.0,0.078,24.9
2023-12-08T13:12:13,2420,42.8014,5.9826,0.041,0.056,4.109,156.0,152.0,153.0,11.7,1504.8,271.5,-0.9,0.9,2485.878,13.31,787.0,0.069,36.2
2023-12-08T13:15:13,2420,42.8014,5.9826,0.031,0.069,4.231,156.0,153.0,154.0,11.7,1504.8,271.4,-0.8,0.9,2485.225,13.31,768.0,0.075,24.2
2023-12-08T13:18:13,2420,42.8014,5.9826,0.023,0.067,4.196,157.0,153.0,154.0,11.7,1504.8,271.4,-0.9,0.9,2485.368,13.31,777.0,0.07,18.9
2023-12-08T13:21:13,2420,42.8014,5.9826,0.022,0.281,2.167,156.0,152.0,153.0,11.8,1504.8,271.5,-0.8,0.9,2485.562,13.31,779.0,0.282,4.5
2023-12-08T13:24:13,2420,42.8014,5.9826,1.011,0.028,3.354,156.0,152.0,153.0,11.7,1504.8,271.5,-0.8,0.9,2485.898,13.31,773.0,1.011,88.4
2023-12-08T13:27:13,2420,42.8014,5.9826,0.953,0.263,2.966,156.0,153.0,153.0,11.8,1504.8,271.5,-0.9,0.9,2485.249,13.31,772.0,0.989,74.6
2023-12-08T13:30:13,2420,42.8014,5.9826,1.14,0.256,2.765,156.0,153.0,153.0,11.8,1504.8,271.5,-0.8,0.9,2485.458,13.31,779.0,1.168,77.3
2023-12-08T13:33:12,2420,42.8014,5.9826,1.121,-0.228,2.855,156.0,153.0,153.0,11.8,1504.8,271.5,-0.8,0.9,2485.532,13.31,789.0,1.144,101.5
2023-12-08T13:36:12,2420,42.8014,5.9826,1.152,0.026,3.198,156.0,152.0,153.0,11.8,1504.8,271.7,-0.8,0.9,2485.745,13.31,776.0,1.152,88.7
2023-12-08T13:39:13,2420,42.8014,5.9826,0.993,0.043,3.325,156.0,152.0,153.0,11.8,1504.8,271.5,-0.8,0.8,2485.725,13.31,767.0,0.994,87.5
2023-12-08T13:42:13,2420,42.8014,5.9826,0.793,0.041,3.632,156.0,152.0,153.0,11.8,1504.8,271.5,-0.8,0.9,2485.615,13.31,767.0,0.794,87.0
2023-12-08T13:45:13,2420,42.8014,5.9826,0.654,0.273,3.313,156.0,152.0,153.0,11.8,1504.7,271.2,-0.8,0.9,2485.568,13.3,772.0,0.709,67.3
2023-12-08T13:48:12,2420,42.8014,5.9826,0.795,0.05,3.613,156.0,152.0,153.0,11.8,1504.7,271.4,-0.8,0.9,2485.757,13.3,775.0,0.797,86.4
2023-12-08T13:51:13,2420,42.8014,5.9826,0.106,0.066,4.105,156.0,153.0,154.0,11.7,1504.7,271.4,-0.9,0.8,2485.566,13.3,772.0,0.124,58.1
2023-12-08T13:54:13,2420,42.8014,5.9826,0.048,0.063,4.229,156.0,153.0,154.0,11.7,1504.7,271.2,-0.8,0.9,2485.328,13.3,760.0,0.079,37.3
2023-12-08T13:57:13,2420,42.8014,5.9826,0.057,0.084,4.187,156.0,153.0,153.0,11.7,1504.7,271.8,-0.9,0.9,2485.615,13.29,755.0,0.101,34.2
2023-12-08T14:03:12,2420,42.8014,5.9826,0.809,0.27,3.146,156.0,152.0,153.0,11.8,1504.7,271.5,-0.8,0.9,2485.699,13.29,761.0,0.853,71.5
2023-12-08T14:06:13,2420,42.8014,5.9826,0.476,-0.193,2.563,156.0,152.0,153.0,11.8,1504.7,271.5,-0.8,0.9,2485.791,13.29,766.0,0.514,112.1
2023-12-08T14:09:13,2420,42.8014,5.9826,0.42,0.275,2.628,156.0,152.0,153.0,11.7,1504.7,271.4,-0.8,0.8,2485.577,13.29,760.0,0.502,56.8
2023-12-08T14:12:12,2420,42.8014,5.9826,0.704,0.046,3.668,156.0,152.0,153.0,11.8,1504.7,271.4,-0.8,0.8,2485.759,13.29,783.0,0.705,86.3
2023-12-08T14:15:12,2420,42.8014,5.9826,0.861,0.029,3.503,156.0,152.0,153.0,11.8,1504.7,271.5,-0.8,0.9,2485.504,13.29,775.0,0.861,88.1
2023-12-08T14:18:12,2420,42.8014,5.9826,0.456,0.051,3.928,156.0,152.0,153.0,11.8,1504.7,271.3,-0.9,0.9,2485.57,13.29,762.0,0.459,83.6
2023-12-08T14:21:12,2420,42.8014,5.9826,0.367,0.289,2.689,156.0,152.0,153.0,11.8,1504.7,271.5,-0.8,0.9,2485.775,13.29,776.0,0.467,51.8
2023-12-08T14:24:12,2420,42.8014,5.9826,0.757,-0.2,3.205,156.0,152.0,153.0,11.8,1504.7,271.4,-0.8,0.9,2485.45,13.29,778.0,0.783,104.8
2023-12-08T14:27:13,2420,42.8014,5.9826,0.008,0.075,4.322,156.0,152.0,153.0,11.7,1504.7,271.4,-0.8,0.9,2485.92,13.29,776.0,0.075,6.1
2023-12-08T14:30:13,2420,42.8014,5.9826,0.01,0.079,4.267,156.0,152.0,153.0,11.7,1504.7,271.7,-0.8,0.9,2486.038,13.29,773.0,0.079,7.2
2023-12-08T14:33:12,2420,42.8014,5.9826,0.054,0.071,4.156,156.0,152.0,153.0,11.7,1504.7,271.5,-0.8,0.9,2486.026,13.29,753.0,0.089,37.3
2023-12-08T14:36:13,2420,42.8014,5.9826,-0.003,0.062,4.188,156.0,152.0,153.0,11.7,1504.7,271.5,-0.9,0.8,2486.454,13.28,776.0,0.062,357.2
2023-12-08T14:39:13,2420,42.8014,5.9826,0.054,0.07,4.149,156.0,152.0,153.0,11.7,1504.7,272.0,-0.8,0.9,2486.145,13.29,776.0,0.088,37.7
2023-12-08T14:42:13,2420,42.8014,5.9826,0.076,0.063,4.163,156.0,152.0,153.0,11.7,1504.7,271.9,-0.8,0.9,2486.325,13.28,786.0,0.098,50.3
2023-12-08T14:45:13,2420,42.8014,5.9826,0.092,0.058,4.149,156.0,152.0,153.0,11.7,1504.7,271.9,-0.8,0.9,2486.117,13.28,780.0,0.108,57.8
2023-12-08T14:48:13,2420,42.8014,5.9826,0.085,0.047,4.111,156.0,152.0,153.0,11.7,1504.7,271.9,-0.8,0.8,2485.665,13.28,776.0,0.097,61.1
2023-12-08T14:51:13,2420,42.8014,5.9826,0.055,0.079,4.194,156.0,152.0,153.0,11.7,1504.7,271.9,-0.8,0.8,2486.008,13.28,772.0,0.096,34.8
2023-12-08T14:54:13,2420,42.8014,5.9826,0.014,0.062,4.228,156.0,152.0,153.0,11.7,1504.7,272.0,-0.8,0.8,2486.237,13.28,782.0,0.063,12.7
2023-12-08T14:57:13,2420,42.8014,5.9826,0.028,0.054,4.264,156.0,152.0,153.0,11.7,1504.7,271.9,-0.8,0.9,2486.223,13.28,772.0,0.06,27.4
2023-12-08T15:03:13,2420,42.8014,5.9826,0.43,-0.201,3.531,156.0,152.0,153.0,11.8,1504.7,271.0,-0.8,0.8,2485.651,13.28,768.0,0.475,115.1
2023-12-08T15:06:12,2420,42.8014,5.9826,0.801,0.028,2.693,156.0,152.0,153.0,11.8,1504.7,271.3,-0.8,0.9,2485.767,13.28,773.0,0.801,88.0
2023-12-08T15:09:13,2420,42.8014,5.9826,0.177,0.076,4.063,157.0,153.0,154.0,11.7,1504.7,271.3,-0.8,0.9,2485.364,13.28,779.0,0.192,66.8
2023-12-08T15:12:13,2420,42.8014,5.9826,0.056,0.065,4.262,157.0,153.0,154.0,11.7,1504.7,271.2,-0.8,0.9,2485.334,13.28,767.0,0.085,40.7
2023-12-08T15:15:12,2420,42.8014,5.9826,0.124,0.068,4.197,157.0,153.0,154.0,11.7,1504.7,271.4,-0.8,0.9,2485.314,13.28,775.0,0.141,61.3
2023-12-08T15:18:13,2420,42.8014,5.9826,0.41,-0.209,3.518,156.0,152.0,153.0,11.8,1504.7,271.9,-0.9,0.9,2485.307,13.28,781.0,0.46,117.0
2023-12-08T15:21:13,2420,42.8014,5.9826,0.415,0.035,3.071,156.0,152.0,153.0,11.8,1504.7,271.3,-0.8,0.9,2485.815,13.28,768.0,0.416,85.2
2023-12-08T15:24:13,2420,42.8014,5.9826,0.558,0.307,3.401,156.0,152.0,153.0,11.8,1504.7,272.0,-0.8,0.9,2485.504,13.28,771.0,0.637,61.2
2023-12-08T15:27:12,2420,42.8014,5.9826,0.235,0.063,3.964,157.0,153.0,153.0,11.7,1504.7,271.0,-0.8,0.9,2485.342,13.28,761.0,0.243,75.0
2023-12-08T15:30:12,2420,42.8014,5.9826,0.043,0.074,4.122,156.0,153.0,153.0,11.7,1504.7,271.6,-0.8,0.9,2485.482,13.29,790.0,0.085,30.2
2023-12-08T15:33:13,2420,42.8014,5.9826,0.331,-0.183,3.606,156.0,152.0,153.0,11.8,1504.7,271.4,-0.8,0.9,2485.5,13.29,786.0,0.378,118.9
2023-12-08T15:36:12,2420,42.8014,5.9826,0.116,0.309,3.812,155.0,152.0,153.0,11.8,1504.7,271.4,-0.8,0.9,2485.629,13.29,763.0,0.33,20.6
2023-12-08T15:39:12,2420,42.8014,5.9826,0.411,0.042,3.945,156.0,152.0,153.0,11.8,1504.7,271.5,-0.8,0.9,2485.562,13.29,771.0,0.413,84.2
2023-12-08T15:42:13,2420,42.8014,5.9826,0.269,0.048,4.11,156.0,152.0,153.0,11.8,1504.7,271.5,-0.8,0.9,2485.412,13.29,771.0,0.273,79.9
2023-12-08T15:45:13,2420,42.8014,5.9826,-0.16,0.528,3.679,156.0,152.0,156.0,11.8,1504.7,271.7,-0.8,0.9,2485.556,13.28,769.0,0.552,343.1
2023-12-08T15:48:13,2420,42.8014,5.9826,0.282,0.055,4.06,156.0,152.0,153.0,11.8,1504.7,271.5,-0.9,0.9,2485.639,13.28,810.0,0.287,79.0
2023-12-08T15:51:13,2420,42.8014,5.9826,0.135,0.069,4.231,156.0,153.0,153.0,11.8,1504.7,271.3,-0.8,0.9,2485.452,13.28,763.0,0.151,62.9
2023-12-08T15:54:13,2420,42.8014,5.9826,0.176,0.062,4.219,156.0,152.0,153.0,11.7,1504.7,271.4,-0.8,0.8,2485.518,13.28,771.0,0.186,70.6
2023-12-08T15:57:13,2420,42.8014,5.9826,0.152,0.058,4.227,156.0,152.0,153.0,11.8,1504.7,271.4,-0.8,0.9,2485.759,13.28,769.0,0.162,69.1
2023-12-08T16:03:12,2420,42.8014,5.9826,0.551,0.065,3.806,156.0,152.0,153.0,11.8,1504.7,271.5,-0.8,0.9,2485.54,13.28,786.0,0.555,83.3
2023-12-08T16:06:12,2420,42.8014,5.9826,0.481,0.052,3.883,155.0,152.0,153.0,11.8,1504.7,271.5,-0.9,0.8,2485.683,13.28,768.0,0.484,83.8
2023-12-08T16:09:12,2420,42.8014,5.9826,0.328,0.062,4.008,156.0,152.0,153.0,11.8,1504.7,271.5,-0.9,0.9,2485.691,13.28,771.0,0.334,79.3
2023-12-08T16:12:12,2420,42.8014,5.9826,0.369,0.051,3.996,156.0,152.0,153.0,11.8,1504.7,271.5,-0.9,0.9,2485.498,13.28,769.0,0.373,82.1
2023-12-08T16:15:12,2420,42.8014,5.9826,0.245,-0.19,3.668,156.0,152.0,153.0,11.8,1504.7,271.5,-0.8,0.9,2485.86,13.28,758.0,0.31,127.8
2023-12-08T16:18:13,2420,42.8014,5.9826,0.187,0.064,4.172,156.0,152.0,153.0,11.8,1504.7,271.6,-0.8,0.9,2485.524,13.28,773.0,0.197,71.1
2023-12-08T16:21:13,2420,42.8014,5.9826,0.023,-0.175,3.932,156.0,152.0,153.0,11.7,1504.7,271.5,-0.9,0.9,2485.789,13.28,767.0,0.176,172.5
2023-12-08T16:24:13,2420,42.8014,5.9826,0.194,0.073,4.205,156.0,152.0,153.0,11.8,1504.7,271.5,-0.8,0.9,2485.173,13.28,781.0,0.207,69.4
2023-12-08T16:27:13,2420,42.8014,5.9826,0.206,0.063,4.13,156.0,152.0,153.0,11.8,1504.7,271.4,-0.8,0.9,2485.406,13.28,772.0,0.215,73.0
2023-12-08T16:30:13,2420,42.8014,5.9826,-0.043,0.416,3.754,156.0,152.0,153.0,11.8,1504.7,271.3,-0.8,0.9,2486.107,13.28,779.0,0.418,354.1
2023-12-08T16:33:12,2420,42.8014,5.9826,0.203,0.07,4.164,156.0,152.0,153.0,11.8,1504.7,271.3,-0.8,0.8,2485.589,13.28,780.0,0.214,71.0
2023-12-08T16:36:12,2420,42.8014,5.9826,0.22,0.065,4.078,156.0,152.0,153.0,11.8,1504.7,271.5,-0.8,0.9,2485.615,13.28,755.0,0.229,73.5
2023-12-08T16:39:13,2420,42.8014,5.9826,0.15,0.034,4.108,156.0,152.0,153.0,11.8,1504.7,271.5,-0.8,0.9,2485.52,13.28,773.0,0.153,77.2
2023-12-08T16:42:13,2420,42.8014,5.9826,0.232,0.0,4.057,156.0,152.0,153.0,11.8,1504.7,271.7,-0.8,0.9,2485.577,13.28,788.0,0.231,90.0
2023-12-08T16:45:13,2420,42.8014,5.9826,0.095,0.075,4.244,156.0,152.0,153.0,11.8,1504.7,271.4,-0.8,0.9,2486.002,13.28,764.0,0.121,51.7
2023-12-08T16:48:13,2420,42.8014,5.9826,0.405,0.052,3.866,156.0,152.0,153.0,11.8,1504.7,271.3,-0.8,0.9,2485.787,13.28,768.0,0.408,82.7
2023-12-08T16:51:13,2420,42.8014,5.9826,0.274,0.068,4.021,156.0,152.0,153.0,11.8,1504.7,271.3,-0.8,0.9,2485.86,13.28,764.0,0.282,76.1
2023-12-08T16:54:13,2420,42.8014,5.9826,0.28,0.074,4.026,156.0,153.0,153.0,11.8,1504.7,271.5,-0.8,0.9,2485.807,13.28,752.0,0.29,75.2
2023-12-08T16:57:13,2420,42.8014,5.9826,0.17,0.076,4.121,156.0,152.0,153.0,11.8,1504.7,271.5,-0.8,0.9,2485.299,13.28,764.0,0.186,65.9
2023-12-08T17:03:12,2420,42.8014,5.9826,0.223,0.07,4.097,155.0,152.0,153.0,11.8,1504.7,271.4,-0.8,0.9,2485.486,13.28,751.0,0.233,72.6
2023-12-08T17:06:12,2420,42.8014,5.9826,0.26,0.083,4.03,156.0,152.0,153.0,11.8,1504.7,271.4,-0.9,0.9,2485.637,13.28,757.0,0.273,72.3
2023-12-08T17:09:13,2420,42.8014,5.9826,0.185,0.066,4.14,156.0,152.0,153.0,11.8,1504.7,271.4,-0.8,0.9,2485.848,13.28,763.0,0.196,70.4
2023-12-08T17:12:13,2420,42.8014,5.9826,0.167,0.079,4.162,156.0,152.0,153.0,11.8,1504.7,271.4,-0.8,0.9,2485.932,13.28,773.0,0.184,64.7
2023-12-08T17:15:13,2420,42.8014,5.9826,0.243,0.061,4.083,156.0,152.0,153.0,11.8,1504.7,271.4,-0.8,0.9,2485.47,13.28,768.0,0.25,75.9
2023-12-08T17:18:13,2420,42.8014,5.9826,0.759,0.039,3.538,156.0,153.0,153.0,11.8,1504.7,271.4,-0.8,0.9,2485.771,13.28,771.0,0.76,87.1
2023-12-08T17:21:13,2420,42.8014,5.9826,0.174,0.051,4.14,156.0,152.0,153.0,11.8,1504.7,271.4,-0.8,0.9,2485.9,13.28,754.0,0.181,73.7
2023-12-08T17:24:13,2420,42.8014,5.9826,0.257,0.025,4.024,156.0,152.0,153.0,11.8,1504.7,271.4,-0.8,0.9,2485.713,13.28,773.0,0.258,84.4
2023-12-08T17:27:13,2420,42.8014,5.9826,0.251,0.04,4.041,156.0,152.0,153.0,11.8,1504.7,271.4,-0.8,0.9,2485.655,13.28,768.0,0.254,80.9
2023-12-08T17:30:13,2420,42.8014,5.9826,0.533,0.054,3.68,156.0,152.0,153.0,11.8,1504.7,271.4,-0.8,0.9,2485.546,13.28,768.0,0.536,84.2
2023-12-08T17:33:12,2420,42.8014,5.9826,0.172,0.062,4.114,156.0,152.0,153.0,11.8,1504.7,271.5,-0.8,0.9,2485.781,13.28,771.0,0.182,70.2
2023-12-08T17:36:12,2420,42.8014,5.9826,0.208,0.062,4.1,156.0,152.0,153.0,11.8,1504.7,271.5,-0.8,0.9,2485.448,13.28,772.0,0.217,73.4
2023-12-08T17:39:13,2420,42.8014,5.9826,0.205,0.068,4.07,156.0,152.0,153.0,11.8,1504.7,271.5,-0.8,0.9,2485.922,13.28,768.0,0.215,71.7
2023-12-08T17:42:13,2420,42.8014,5.9826,0.213,0.065,4.112,156.0,152.0,153.0,11.7,1504.7,271.3,-0.8,0.9,2485.257,13.28,772.0,0.222,73.0
2023-12-08T17:45:13,2420,42.8014,5.9826,0.241,0.079,4.03,156.0,153.0,153.0,11.8,1504.7,271.4,-0.8,0.9,2485.922,13.28,750.0,0.253,71.9
2023-12-08T17:48:13,2420,42.8014,5.9826,0.336,0.045,3.968,156.0,152.0,153.0,11.8,1504.7,271.5,-0.8,0.9,2485.532,13.28,774.0,0.339,82.4
2023-12-08T17:51:13,2420,42.8014,5.9826,0.234,0.064,4.045,156.0,152.0,153.0,11.8,1504.7,271.4,-0.8,0.9,2485.667,13.28,2268.0,0.242,74.7
2023-12-08T17:54:13,2420,42.8014,5.9826,0.18,0.046,4.101,156.0,152.0,153.0,11.8,1504.7,271.5,-0.8,0.9,2485.599,13.28,749.0,0.185,75.7
2023-12-08T17:57:13,2420,42.8014,5.9826,0.258,0.038,4.003,156.0,152.0,153.0,11.8,1504.7,271.7,-0.8,0.9,2485.508,13.28,773.0,0.261,81.6
2023-12-08T18:03:12,2420,42.8014,5.9826,0.13,0.086,4.183,156.0,152.0,153.0,11.8,1504.7,271.4,-0.8,0.9,2485.693,13.28,754.0,0.155,56.5
2023-12-08T18:06:13,2420,42.8014,5.9826,0.153,0.058,4.162,156.0,152.0,153.0,11.8,1504.7,271.4,-0.8,0.9,2485.681,13.28,767.0,0.163,69.2
2023-12-08T18:09:13,2420,42.8014,5.9826,0.203,0.074,4.041,155.0,152.0,153.0,11.8,1504.7,271.4,-0.8,0.8,2485.745,13.28,765.0,0.216,70.0
2023-12-08T18:12:13,2420,42.8014,5.9826,0.204,0.069,4.033,156.0,152.0,153.0,11.8,1504.7,271.7,-0.8,0.9,2486.028,13.28,759.0,0.215,71.3
2023-12-08T18:15:13,2420,42.8014,5.9826,0.345,0.062,3.913,156.0,152.0,153.0,11.8,1504.7,271.4,-0.8,0.9,2485.607,13.28,761.0,0.35,79.8
2023-12-08T18:18:13,2420,42.8014,5.9826,0.022,0.43,3.646,156.0,152.0,160.0,11.8,1504.7,271.4,-0.9,0.9,2485.255,13.28,773.0,0.431,2.9